Regional Weather Roundup
Issued by NWS

Home | Current Version | Previous Version | Text Only | Print | Product List | Glossary Off
Versions: 1 2 3 4 5 6 7 8 9 10 11 12 13 14 15 16 17 18 19 20 21 22 23 24 25 26 27 28 29 30 31 32 33 34 35 36 37 38 39 40 41 42 43 44 45 46 47 48 49 50

000
ASUS43 KDMX 070807
RWRIA

WEATHER ROUNDUP FOR IOWA
NATIONAL WEATHER SERVICE DES MOINES IA
300 AM CDT TUE JUL 07 2015

NOTE: "FAIR" INDICATES FEW OR NO CLOUDS BELOW 12,000 FEET WITH NO
SIGNIFICANT WEATHER AND/OR OBSTRUCTIONS TO VISIBILITY.

* - THESE STATIONS ARE NOT NWS STATIONS...THUS NOT UNDER NWS
QUALITY CONTROL.  THEY ALSO DO NOT REPORT WEATHER SUCH
AS PRECIPITATION OR FOG.

IAZ001>003-012>014-020>022-031>034-043>046-070900-
   NORTHWEST IOWA

CITY           SKY/WX    TMP DP  RH WIND       PRES   REMARKS
CARROLL *      CLOUDY    55  52  88 N12G18    30.07S
CHEROKEE *     CLEAR     55  52  88 N7        30.12S
DENISON *      PTCLDY    55  52  88 N7        30.07F
LE MARS *      CLEAR     52  52 100 CALM      30.15S
ORANGE CITY *  CLEAR     54  50  87 N6        30.14S
SHELDON *      PTCLDY    50  50 100 N5        30.13S
SIOUX CITY     CLEAR     56  51  84 N6        30.14R
SPENCER        CLEAR     49  46  90 NW8       30.12S
STORM LAKE *   CLEAR     54  50  87 N10       30.12R
$$

IAZ055>058-069>071-079>083-090>094-070900-
   SOUTHWEST IOWA

CITY           SKY/WX    TMP DP  RH WIND       PRES   REMARKS
ATLANTIC *     CLOUDY    57  54  88 NE6       30.07S
AUDUBON *      CLEAR     57  52  82 N9        30.08R
CLARINDA *     CLEAR     64  57  77 N12G17    30.06S
COUNCIL BLFS * CLEAR     59  52  77 N9G15     30.09R
CRESTON *      MOCLDY    61  55  82 N12G18    30.03F
HARLAN  *      CLEAR     59  54  82 N14       30.11S
LAMONI         MOCLDY    65  60  84 N12       30.00R HAZE
RED OAK *      CLEAR     59  55  88 N9        30.06S
SHENANDOAH *     N/A     63  57  82 N8        30.07R
$$

IAZ047>049-059>061-072>074-084-070900-
   CENTRAL IOWA

CITY           SKY/WX    TMP DP  RH WIND       PRES   REMARKS
AMES           CLEAR     59  53  80 N13       30.02S
ANKENY *       PTCLDY    61  55  82 N8G16     30.01S
CHARITON *     CLOUDY    63  59  88 N9        30.00R FOG
DES MOINES     PTCLDY    64  53  67 N13       30.01R
GRINNELL*        N/A     59  57  94 NW9       29.99S FOG
KNOXVILLE *    CLEAR     64  59  82 N10       29.98S HAZE
MARSHALLTOWN   MOCLDY    60  58  92 NW10      29.99S FOG
PELLA *          N/A     61  61 100 NW8       30.00S FOG
PERRY *          N/A     59  54  82 N12       30.05R
$$

IAZ004>006-015-016-023>025-035-036-070900-
   NORTH CENTRAL IOWA

CITY           SKY/WX    TMP DP  RH WIND       PRES   REMARKS
ALGONA *       CLEAR     54  48  82 N12       30.08S
CLARION *      CLEAR     54  52  94 N8        30.05S
ESTHERVILLE    CLEAR     50  47  89 N8        30.10F
FORT DODGE *   CLEAR     55  48  76 N8        30.07S
MASON CITY     CLEAR     54  51  90 NW8       30.06S
FOREST CITY *  CLEAR     52  50  93 N8        30.06S
IOWA FALLS *     N/A     57  54  88 N12       30.03S
$$

IAZ007>011-017>019-026>030-037>042-050>054-066-070900-
   NORTHEAST IOWA

CITY           SKY/WX    TMP DP  RH WIND       PRES   REMARKS
CEDAR RAPIDS   MOCLDY    61  58  90 N12       29.94S FOG
CHARLES CITY * CLEAR     57  57 100 N12       30.02F
CLINTON *      CLOUDY    63  55  77 N14G20    29.92S
DECORAH *        N/A    N/A N/A N/A MISG        N/A
DUBUQUE        MOCLDY    60  55  83 N13G22    29.93R HAZE
MONTICELLO *   CLEAR     61  59  94 N6        29.94S FOG
OELWEIN *        N/A     57  57 100 N8        29.99S FOG
WATERLOO       CLEAR     59  57  93 N10       29.98S FOG
$$

IAZ064-065-067-068-078-070900-
   EAST CENTRAL IOWA

CITY           SKY/WX    TMP DP  RH WIND       PRES   REMARKS
DAVENPORT      CLOUDY    63  58  83 N13       29.90R HAZE
IOWA CITY      MOCLDY    64  57  78 N14G21    29.94R HAZE
MT. PLEASANT * CLOUDY    68  63  83 N10       29.93R HAZE
MUSCATINE *    MOCLDY    64  57  77 N10G16    29.92R HAZE
QUAD CITIES    CLOUDY    65  59  81 N8        29.90R HAZE
$$

IAZ062-063-075>077-085>089-095>099-070900-
   SOUTHEAST IOWA

CITY           SKY/WX    TMP DP  RH WIND       PRES   REMARKS
BURLINGTON     CLOUDY    65  64  97 N9G18     29.91R
FAIRFIELD *    MOCLDY    63  59  88 N13       29.94R HAZE
FORT MADISON * CLOUDY    64  63  94 N12G17    29.93R
KEOKUK *       LGT RAIN  66  64  94 N10       29.91R
OSKALOOSA *    MOCLDY    63  57  82 N9        29.97R HAZE
CENTERVILLE *  PTCLDY    64  57  77 N13G18    29.98R
OTTUMWA        MOCLDY    63  58  83 N12       29.94S HAZE
WASHINGTON *   PTCLDY    63  61  94 N12G20    29.95R FOG
$$

ABBREVIATIONS USED IN REMARKS
   TC - TEMPERATURES IN CELSIUS
  WCI - WIND CHILL INDEX
   HX - HEAT INDEX
  VSB - VISIBILITY
$$




USA.gov is the U.S. government's official web portal to all federal, state and local government web resources and services.